Date,TemperatureHighF,TemperatureAvgF,TemperatureLowF,DewpointHighF,DewpointAvgF,DewpointLowF,HumidityHigh,HumidityAvg,HumidityLow,PressureMaxIn,PressureMinIn,WindSpeedMaxMPH,WindSpeedAvgMPH,GustSpeedMaxMPH,PrecipitationSumIn
2013-3-1,38.5,33.6,28.6,29.8,26.1,22.3,91,74,63,29.81,29.63,15,2,15,0.01
2013-3-2,32.7,28.0,23.4,22.6,20.9,16.5,79,75,64,29.81,29.74,14,3,14,0.00
2013-3-3,31.6,23.3,19.9,19.8,15.4,12.9,80,71,60,29.82,29.72,14,3,15,0.00
2013-3-4,33.4,25.1,21.7,21.6,17.9,14.4,82,74,57,29.96,29.80,19,4,22,0.00
2013-3-5,44.1,30.3,25.9,28.2,22.3,19.9,80,73,49,30.07,29.96,13,2,13,0.00
2013-3-6,37.9,35.6,32.5,29.5,26.5,23.2,75,69,64,30.10,30.00,26,4,26,0.00
2013-3-7,34.2,31.3,29.1,28.0,25.8,22.1,93,80,65,30.15,30.08,10,1,13,0.00
2013-3-8,32.5,29.2,27.7,29.7,25.1,22.6,92,85,75,30.29,30.08,14,2,14,0.00
2013-3-9,56.3,35.2,20.5,26.6,21.4,16.3,98,64,23,30.38,30.27,11,1,11,0.01
2013-3-10,55.8,36.1,20.5,31.8,25.8,18.9,95,70,36,30.40,30.26,12,1,16,0.01
2013-3-11,48.7,44.3,29.8,41.7,35.2,27.9,94,71,50,30.22,30.06,14,1,16,0.00
2013-3-12,49.5,45.7,34.9,48.4,43.3,31.3,97,92,83,30.06,29.68,18,2,18,2.32
2013-3-13,46.2,35.6,27.5,31.8,26.4,21.0,94,71,42,29.88,29.80,15,1,15,0.00
2013-3-14,29.7,24.6,18.3,26.1,12.0,7.2,88,59,43,29.94,29.84,21,5,25,0.00
2013-3-15,36.1,29.2,21.6,28.6,18.5,9.0,85,64,46,29.97,29.71,26,3,26,0.00
2013-3-16,35.2,29.1,23.0,25.5,19.1,9.9,85,67,37,29.94,29.78,16,1,19,0.00
2013-3-17,33.4,25.3,18.1,18.3,11.3,6.4,77,57,35,30.36,29.94,18,2,22,0.00
2013-3-18,31.8,21.9,11.7,22.3,12.6,4.5,92,71,34,30.46,30.10,11,1,13,0.00
2013-3-19,37.9,30.0,24.3,35.2,27.7,19.6,96,91,72,30.10,29.71,15,1,17,0.14
2013-3-20,39.9,28.0,23.7,23.0,18.9,14.4,85,69,38,29.86,29.78,16,2,18,0.12
2013-3-21,37.9,24.1,11.7,19.2,12.8,7.5,92,65,31,29.85,29.66,11,1,13,0.12
2013-3-22,35.6,26.7,19.6,22.8,18.1,10.8,87,70,54,29.87,29.72,18,2,26,0.03
2013-3-23,41.7,32.1,27.7,23.4,20.8,16.5,83,64,42,29.90,29.81,23,4,23,0.03
2013-3-24,43.5,34.2,26.4,25.3,21.1,18.0,84,59,43,29.95,29.75,15,2,15,0.00
2013-3-25,42.4,35.0,26.8,26.2,24.5,21.7,89,66,46,29.77,29.52,15,1,15,0.00
2013-3-26,46.0,35.7,27.0,31.6,26.1,17.6,90,70,35,29.89,29.63,15,2,16,0.00
2013-3-27,48.9,34.1,22.1,28.9,23.6,20.1,94,69,33,29.93,29.88,14,2,16,0.00
2013-3-28,41.5,39.8,36.1,31.1,29.7,27.0,79,67,63,30.15,30.03,12,2,14,0.00
2013-3-29,45.9,40.8,36.1,30.0,28.4,26.2,75,61,51,30.17,30.11,12,2,12,0.00
2013-3-30,57.6,42.6,25.7,31.8,25.3,19.2,96,55,26,30.18,30.09,16,2,16,0.00
2013-3-31,52.9,36.7,22.3,37.9,28.6,20.5,96,77,37,30.17,29.74,16,1,22,0.28